Tracking 25198 objects as of 16-Jan-2022
HD Live streaming from Space Station
objects crossing your sky now

THOR ABLESTAR DEB

Track THOR ABLESTAR DEB now!
10-day predictions


NORAD ID: 408
Int'l Code: 1961-015EH
Perigee: 941.2 km
Apogee: 1,035.3 km
Inclination: 66.8 °
Period: 104.7 minutes
Semi major axis: 7359 km
RCS: 0.1296 m2 (medium)
Launch date: June 29, 1961
Source: United States (US)
Launch site: AIR FORCE EASTERN TEST RANGE (AFETR)

Note: This is SATELLITE DEBRIS
aabbcc
Your satellite tracking list
Your tracking list is empty




NASA's NSSDC Master Catalog

Two Line Element Set (TLE):
1   408U 61015EH  22016.39906432  .00000112  00000-0  19042-3 0  9995
2   408  66.7879 352.6442 0063959 139.8436 298.9172 13.75161398 84294
Source of the keplerian elements: AFSPC